Location: ????????
(55.0559°N, 39.1270°E)
Time: 03:59:26
(UTC+00:00)

Cosmos 2360 Rocket - Visible Passes

Search period start: 11 February 2026 00:00
Search period end: 21 February 2026 00:00
Orbit: 834 x 842 km, 71.0° (Epoch: 10 February)

Date Brightness Start Highest point End Pass type
(mag) Time Alt. Az. Time Alt. Az. Time Alt. Az.
11 Feb 5.2 03:56:31 10° SSE 04:00:32 20° E 04:04:34 10° NE visible
12 Feb 5.3 03:40:37 10° SE 03:44:28 19° E 03:48:21 10° ENE visible
12 Feb 6.0 15:55:50 10° W 15:56:47 10° W 15:57:43 10° WSW visible
13 Feb 5.3 03:24:43 10° SE 03:28:25 18° E 03:32:07 10° ENE visible
13 Feb 5.9 15:39:07 10° WNW 15:40:44 11° W 15:42:21 10° WSW visible
14 Feb 5.2 03:08:51 10° SE 03:12:21 17° E 03:15:52 10° ENE visible
14 Feb 5.7 15:22:36 10° WNW 15:24:41 12° W 15:26:45 10° WSW visible
15 Feb 5.2 02:53:00 10° SE 02:56:18 16° E 02:59:36 10° ENE visible
15 Feb 5.6 15:06:12 10° WNW 15:08:38 13° W 15:11:04 10° WSW visible
16 Feb 5.2 02:37:10 10° SE 02:40:15 15° E 02:43:19 10° ENE visible
17 Feb 5.2 02:21:22 10° SE 02:24:11 14° E 02:27:01 10° ENE visible
17 Feb 2.7 04:01:34 10° SSW 04:07:07 66° ESE 04:12:43 10° NE visible
18 Feb 5.2 02:05:36 10° ESE 02:08:08 13° E 02:10:41 10° ENE visible
18 Feb 2.8 03:45:29 10° SSW 03:51:00 63° ESE 03:56:35 10° NE visible
19 Feb 5.2 01:49:54 10° ESE 01:52:05 12° E 01:54:17 10° ENE visible
19 Feb 2.9 03:29:24 10° SSW 03:34:55 59° ESE 03:40:27 10° NE visible
20 Feb 5.2 01:34:16 10° ESE 01:36:02 11° E 01:37:49 10° ENE visible
20 Feb 2.9 03:13:21 10° SSW 03:18:48 56° ESE 03:24:19 10° NE visible
